User: anonymous   Login
Location: Unspecified
(0.0000°N, 0.0000°E)
Time: 22:06:38
(UTC+00:00)
Language:

Tiros 1 - Orbit

View from above orbital plane
View from above orbital plane
View from above satellite
View from above satellite

Ground track
Ground track

The orbit data is extracted from the following two-line orbital elements,

1 00029U 60002B   17290.27101069 -.00000046  00000-0  24178-4 0  9991
2 00029  48.3794 225.5714 0024028  23.7835 336.4182 14.74200325 74914
Epoch (UTC): 17 October 2017 06:30:15
Eccentricity: 0.0024028
inclination: 48.3794°
perigee height: 631 km
apogee height: 664 km
right ascension of ascending node: 225.5714°
argument of perigee: 23.7835°
revolutions per day: 14.74200325
mean anomaly at epoch: 336.4182°
orbit number at epoch: 7491

The dashed part of the orbit path shows where the satellite is in the earth's shadow,  

DLR